,,,PA_Meas_PMT16A,,PR_Meas_QMR101_102,,RH_Meas_QMH101,,SR_Meas_QMS101,,TA_Meas_QMH101,,GenWind,,GenWind,
date,time,status,PA,status,PR,status,RH,status,SR,status,TA,status,DirAvg,status,SpdAvg,
2009-05-21, 00:00:04,VALID,1009.19,VALID,0,VALID,88.9392,VALID,0,VALID,24.1051,VALID,78,VALID,0,
2009-05-21, 00:01:04,VALID,1009.2,VALID,0,VALID,88.9392,VALID,0,VALID,24.0643,VALID,78,VALID,0,
2009-05-21, 00:02:04,VALID,1009.22,VALID,0,VALID,88.9468,VALID,0,VALID,24.0643,VALID,78,VALID,0,
2009-05-21, 00:03:04,VALID,1009.18,VALID,0,VALID,88.9849,VALID,0,VALID,24.0253,VALID,49,VALID,0,
2009-05-21, 00:04:04,VALID,1009.17,VALID,0,VALID,88.9697,VALID,0,VALID,24.0058,VALID,44,VALID,0,
2009-05-21, 00:05:04,VALID,1009.16,VALID,0,VALID,88.9925,VALID,0,VALID,24.0058,VALID,17,VALID,0,
2009-05-21, 00:06:04,VALID,1009.14,VALID,0,VALID,89.0002,VALID,0,VALID,23.9863,VALID,17,VALID,0,
2009-05-21, 00:07:04,VALID,1009.16,VALID,0,VALID,89.0383,VALID,0,VALID,23.9668,VALID,15,VALID,0,
2009-05-21, 00:08:04,VALID,1009.13,VALID,0,VALID,89.0536,VALID,0,VALID,23.9473,VALID,5,VALID,0,
2009-05-21, 00:09:04,VALID,1009.14,VALID,0,VALID,89.0764,VALID,0,VALID,23.9278,VALID,360,VALID,0,
2009-05-21, 00:10:04,VALID,1009.13,VALID,0,VALID,89.1069,VALID,0,VALID,23.9278,VALID,346,VALID,0,
2009-05-21, 00:11:04,VALID,1009.16,VALID,0,VALID,89.1222,VALID,0,VALID,23.9065,VALID,346,VALID,0,
2009-05-21, 00:12:04,VALID,1009.15,VALID,0,VALID,89.1374,VALID,0,VALID,23.9278,VALID,346,VALID,0,
2009-05-21, 00:13:04,VALID,1009.13,VALID,0,VALID,89.1679,VALID,0,VALID,23.9278,VALID,346,VALID,0,
2009-05-21, 00:14:04,VALID,1009.13,VALID,0,VALID,89.2061,VALID,0,VALID,23.9278,VALID,346,VALID,0,
2009-05-21, 00:15:04,VALID,1009.17,VALID,0,VALID,89.2213,VALID,0,VALID,23.926,VALID,346,VALID,0,
2009-05-21, 00:16:04,VALID,1009.17,VALID,0,VALID,89.2137,VALID,0,VALID,23.926,VALID,346,VALID,0,
2009-05-21, 00:17:04,VALID,1009.19,VALID,0,VALID,89.2442,VALID,0,VALID,23.9473,VALID,346,VALID,0,
2009-05-21, 00:18:04,VALID,1009.2,VALID,0,VALID,89.2289,VALID,0,VALID,23.9668,VALID,346,VALID,0,
2009-05-21, 00:19:04,VALID,1009.21,VALID,0,VALID,89.2366,VALID,0,VALID,23.9668,VALID,346,VALID,0,
2009-05-21, 00:20:04,VALID,1009.2,VALID,0,VALID,89.2289,VALID,0,VALID,23.9455,VALID,346,VALID,0,
2009-05-21, 00:21:04,VALID,1009.22,VALID,0,VALID,89.2289,VALID,0,VALID,23.9668,VALID,346,VALID,0,
2009-05-21, 00:22:04,VALID,1009.23,VALID,0,VALID,89.2137,VALID,0,VALID,23.965,VALID,346,VALID,0,
2009-05-21, 00:23:04,VALID,1009.21,VALID,0,VALID,89.2442,VALID,0,VALID,23.9863,VALID,346,VALID,0,
2009-05-21, 00:24:04,VALID,1009.19,VALID,0,VALID,89.2061,VALID,0,VALID,23.9863,VALID,346,VALID,0,
2009-05-21, 00:25:04,VALID,1009.14,VALID,0,VALID,89.1832,VALID,0,VALID,23.9668,VALID,346,VALID,0,
2009-05-21, 00:26:04,VALID,1009.13,VALID,0,VALID,89.1679,VALID,0,VALID,23.9455,VALID,346,VALID,0,
2009-05-21, 00:27:04,VALID,1009.11,VALID,0,VALID,89.1756,VALID,0,VALID,23.9668,VALID,346,VALID,0,
2009-05-21, 00:28:04,VALID,1009.08,VALID,0,VALID,89.1908,VALID,0,VALID,23.9668,VALID,346,VALID,0,
2009-05-21, 00:29:04,VALID,1009.03,VALID,0,VALID,89.1984,VALID,0,VALID,23.926,VALID,346,VALID,0,
2009-05-21, 00:30:04,VALID,1009.06,VALID,0,VALID,89.2061,VALID,0,VALID,23.9668,VALID,346,VALID,0,
2009-05-21, 00:31:04,VALID,1009.07,VALID,0,VALID,89.2137,VALID,0,VALID,23.9668,VALID,346,VALID,0,
2009-05-21, 00:32:04,VALID,1009.08,VALID,0,VALID,89.2137,VALID,0,VALID,23.9455,VALID,346,VALID,0,
2009-05-21, 00:33:04,VALID,1009.08,VALID,0,VALID,89.2137,VALID,0,VALID,23.926,VALID,346,VALID,0,
2009-05-21, 00:34:04,VALID,1009.07,VALID,0,VALID,89.1984,VALID,0,VALID,23.9473,VALID,346,VALID,0,
2009-05-21, 00:35:04,VALID,1009.08,VALID,0,VALID,89.1832,VALID,0,VALID,23.9278,VALID,346,VALID,0,
2009-05-21, 00:36:04,VALID,1009.1,VALID,0,VALID,89.1832,VALID,0,VALID,23.9278,VALID,346,VALID,0,
2009-05-21, 00:37:04,VALID,1009.09,VALID,0,VALID,89.1832,VALID,0,VALID,23.9278,VALID,346,VALID,0,
2009-05-21, 00:38:04,VALID,1009.08,VALID,0,VALID,89.1756,VALID,0,VALID,23.9278,VALID,346,VALID,0,
2009-05-21, 00:39:04,VALID,1009.08,VALID,0,VALID,89.1984,VALID,0,VALID,23.926,VALID,346,VALID,0,
2009-05-21, 00:40:04,VALID,1009.08,VALID,0,VALID,89.2061,VALID,0,VALID,23.926,VALID,346,VALID,0,
2009-05-21, 00:41:04,VALID,1009.07,VALID,0,VALID,89.2289,VALID,0,VALID,23.9473,VALID,346,VALID,0,
2009-05-21, 00:42:04,VALID,1009.07,VALID,0,VALID,89.2366,VALID,0,VALID,23.9473,VALID,346,VALID,0,
2009-05-21, 00:43:04,VALID,1009.1,VALID,0,VALID,89.2213,VALID,0,VALID,23.9668,VALID,346,VALID,0,
2009-05-21, 00:44:04,VALID,1009.1,VALID,0,VALID,89.2442,VALID,0,VALID,23.9473,VALID,346,VALID,0,
2009-05-21, 00:45:04,VALID,1009.1,VALID,0,VALID,89.2518,VALID,0,VALID,23.9473,VALID,346,VALID,0,
2009-05-21, 00:46:04,VALID,1009.13,VALID,0,VALID,89.2594,VALID,0,VALID,23.926,VALID,346,VALID,0,
2009-05-21, 00:47:04,VALID,1009.12,VALID,0,VALID,89.2518,VALID,0,VALID,23.9473,VALID,346,VALID,0,
2009-05-21, 00:48:04,VALID,1009.13,VALID,0,VALID,89.2671,VALID,0,VALID,23.9473,VALID,346,VALID,0,
2009-05-21, 00:49:04,VALID,1009.14,VALID,0,VALID,89.2442,VALID,0,VALID,23.9473,VALID,346,VALID,0,
2009-05-21, 00:50:04,VALID,1009.15,VALID,0,VALID,89.2289,VALID,0,VALID,23.9278,VALID,346,VALID,0,
2009-05-21, 00:51:04,VALID,1009.15,VALID,0,VALID,89.2442,VALID,0,VALID,23.9473,VALID,346,VALID,0,
2009-05-21, 00:52:04,VALID,1009.15,VALID,0,VALID,89.2366,VALID,0,VALID,23.9473,VALID,346,VALID,0,
2009-05-21, 00:53:04,VALID,1009.14,VALID,0,VALID,89.2442,VALID,0,VALID,23.9065,VALID,346,VALID,0,
2009-05-21, 00:54:04,VALID,1009.14,VALID,0,VALID,89.2442,VALID,0,VALID,23.9278,VALID,346,VALID,0,
2009-05-21, 00:55:04,VALID,1009.14,VALID,0,VALID,89.2442,VALID,0,VALID,23.9278,VALID,316,VALID,0,
2009-05-21, 00:56:04,VALID,1009.18,VALID,0,VALID,89.2671,VALID,0,VALID,23.9278,VALID,320,VALID,0,
2009-05-21, 00:57:04,VALID,1009.19,VALID,0,VALID,89.2518,VALID,0,VALID,23.9668,VALID,298,VALID,0,
2009-05-21, 00:58:04,VALID,1009.17,VALID,0,VALID,89.2747,VALID,0,VALID,23.9863,VALID,298,VALID,0,
2009-05-21, 00:59:04,VALID,1009.17,VALID,0,VALID,89.2594,VALID,0,VALID,24.0058,VALID,298,VALID,0,
2009-05-21, 01:00:05,VALID,1009.16,VALID,0,VALID,89.2289,VALID,0,VALID,24.004,VALID,298,VALID,0,
2009-05-21, 01:01:05,VALID,1009.14,VALID,0,VALID,89.1984,VALID,0,VALID,24.0253,VALID,300,VALID,0,
2009-05-21, 01:02:05,VALID,1009.1,VALID,0,VALID,89.1451,VALID,0,VALID,24.0235,VALID,320,VALID,0,
2009-05-21, 01:03:05,VALID,1009.12,VALID,0,VALID,89.0993,VALID,0,VALID,24.0448,VALID,338,VALID,0.489453,
2009-05-21, 01:04:05,VALID,1009.1,VALID,0,VALID,89.0459,VALID,0,VALID,24.004,VALID,339,VALID,0.341016,
2009-05-21, 01:05:05,VALID,1009.1,VALID,0,VALID,89.0459,VALID,0,VALID,24.0235,VALID,346,VALID,0.374609,
2009-05-21, 01:06:05,VALID,1009.06,VALID,0,VALID,89.0154,VALID,0.105969,VALID,24.004,VALID,346,VALID,0.349609,
2009-05-21, 01:07:05,VALID,1009.05,VALID,0,VALID,88.9849,VALID,0,VALID,24.004,VALID,346,VALID,0.317969,
2009-05-21, 01:08:05,VALID,1009.05,VALID,0,VALID,88.9392,VALID,0,VALID,24.0058,VALID,346,VALID,0.234375,
2009-05-21, 01:09:05,VALID,1009.08,VALID,0,VALID,88.9315,VALID,0,VALID,23.9845,VALID,346,VALID,0,
2009-05-21, 01:10:05,VALID,1009.09,VALID,0,VALID,88.9392,VALID,0,VALID,23.965,VALID,346,VALID,0,
2009-05-21, 01:11:05,VALID,1009.12,VALID,0,VALID,88.9392,VALID,0,VALID,23.965,VALID,346,VALID,0,
2009-05-21, 01:12:05,VALID,1009.12,VALID,0,VALID,88.962,VALID,0,VALID,23.9845,VALID,346,VALID,0,
2009-05-21, 01:13:05,VALID,1009.12,VALID,0,VALID,88.9925,VALID,0,VALID,23.9845,VALID,346,VALID,0,
2009-05-21, 01:14:05,VALID,1009.1,VALID,0,VALID,88.9849,VALID,0,VALID,24.0058,VALID,346,VALID,0,
2009-05-21, 01:15:05,VALID,1009.1,VALID,0,VALID,88.9925,VALID,0,VALID,23.9845,VALID,346,VALID,0,
2009-05-21, 01:16:05,VALID,1009.06,VALID,0,VALID,88.9925,VALID,0,VALID,23.9845,VALID,346,VALID,0,
2009-05-21, 01:17:05,VALID,1009.03,VALID,0,VALID,88.9849,VALID,0,VALID,23.9845,VALID,346,VALID,0,
2009-05-21, 01:18:05,VALID,1009.02,VALID,0,VALID,89.0078,VALID,0,VALID,23.965,VALID,346,VALID,0,
2009-05-21, 01:19:05,VALID,1009,VALID,0,VALID,89.0078,VALID,0,VALID,23.965,VALID,346,VALID,0,
2009-05-21, 01:20:05,VALID,1009.01,VALID,0,VALID,89.0154,VALID,0,VALID,23.965,VALID,346,VALID,0,
2009-05-21, 01:21:05,VALID,1009.04,VALID,0,VALID,89.0307,VALID,0,VALID,23.9668,VALID,346,VALID,0,
2009-05-21, 01:22:05,VALID,1009.04,VALID,0,VALID,89.0383,VALID,0.105969,VALID,23.9455,VALID,346,VALID,0,
2009-05-21, 01:23:05,VALID,1009.01,VALID,0,VALID,89.0459,VALID,0.105969,VALID,23.9473,VALID,346,VALID,0.103125,
2009-05-21, 01:24:05,VALID,1009.02,VALID,0,VALID,89.0688,VALID,0,VALID,23.926,VALID,346,VALID,0.0914062,
2009-05-21, 01:25:05,VALID,1009,VALID,0,VALID,89.0612,VALID,0,VALID,23.9278,VALID,346,VALID,0.0972656,
2009-05-21, 01:26:05,VALID,1009.01,VALID,0,VALID,89.0612,VALID,0,VALID,23.9084,VALID,346,VALID,0,
2009-05-21, 01:27:05,VALID,1009,VALID,0,VALID,89.0764,VALID,0,VALID,23.8871,VALID,346,VALID,0,
2009-05-21, 01:28:05,VALID,1009,VALID,0,VALID,89.0841,VALID,0,VALID,23.8871,VALID,346,VALID,0,
2009-05-21, 01:29:05,VALID,1009.01,VALID,0,VALID,89.1146,VALID,0,VALID,23.8676,VALID,346,VALID,0,
2009-05-21, 01:30:05,VALID,1009,VALID,0,VALID,89.1527,VALID,0,VALID,23.8889,VALID,346,VALID,0,
2009-05-21, 01:31:05,VALID,1008.97,VALID,0,VALID,89.1832,VALID,0,VALID,23.8889,VALID,346,VALID,0,
2009-05-21, 01:32:05,VALID,1008.99,VALID,0,VALID,89.1908,VALID,0,VALID,23.8889,VALID,346,VALID,0,
2009-05-21, 01:33:05,VALID,1008.98,VALID,0,VALID,89.2137,VALID,0,VALID,23.8889,VALID,346,VALID,0,
2009-05-21, 01:34:05,VALID,1008.99,VALID,0,VALID,89.2289,VALID,0,VALID,23.8889,VALID,346,VALID,0,
2009-05-21, 01:35:05,VALID,1008.98,VALID,0,VALID,89.2518,VALID,0,VALID,23.8694,VALID,346,VALID,0,
2009-05-21, 01:36:05,VALID,1008.96,VALID,0,VALID,89.2442,VALID,0,VALID,23.9102,VALID,346,VALID,0,
2009-05-21, 01:37:05,VALID,1008.96,VALID,0,VALID,89.2671,VALID,0,VALID,23.8694,VALID,346,VALID,0,
2009-05-21, 01:38:05,VALID,1008.97,VALID,0,VALID,89.2671,VALID,0,VALID,23.8907,VALID,346,VALID,0,
2009-05-21, 01:39:05,VALID,1008.98,VALID,0,VALID,89.2899,VALID,0,VALID,23.8694,VALID,346,VALID,0,
2009-05-21, 01:40:05,VALID,1008.97,VALID,0,VALID,89.2823,VALID,0,VALID,23.8907,VALID,346,VALID,0,
2009-05-21, 01:41:05,VALID,1009.03,VALID,0,VALID,89.3052,VALID,0,VALID,23.8694,VALID,346,VALID,0,
2009-05-21, 01:42:05,VALID,1009.06,VALID,0,VALID,89.3128,VALID,0,VALID,23.8694,VALID,346,VALID,0,
2009-05-21, 01:43:05,VALID,1009.06,VALID,0,VALID,89.2976,VALID,0,VALID,23.8694,VALID,346,VALID,0,
2009-05-21, 01:44:05,VALID,1009.09,VALID,0,VALID,89.2823,VALID,0,VALID,23.8499,VALID,346,VALID,0,
2009-05-21, 01:45:05,VALID,1009.08,VALID,0,VALID,89.3052,VALID,0,VALID,23.8499,VALID,346,VALID,0,
2009-05-21, 01:46:05,VALID,1009.08,VALID,0,VALID,89.3128,VALID,0,VALID,23.8109,VALID,346,VALID,0,
2009-05-21, 01:47:05,VALID,1009.05,VALID,0,VALID,89.3052,VALID,0,VALID,23.8304,VALID,346,VALID,0,
2009-05-21, 01:48:05,VALID,1009.03,VALID,0,VALID,89.3204,VALID,0,VALID,23.8109,VALID,346,VALID,0,
2009-05-21, 01:49:05,VALID,1009,VALID,0,VALID,89.3052,VALID,0,VALID,23.8109,VALID,346,VALID,0,
2009-05-21, 01:50:05,VALID,1008.99,VALID,0,VALID,89.3128,VALID,0,VALID,23.8109,VALID,346,VALID,0,
2009-05-21, 01:51:05,VALID,1009.01,VALID,0,VALID,89.3204,VALID,0,VALID,23.7914,VALID,346,VALID,0,
2009-05-21, 01:52:05,VALID,1009.02,VALID,0,VALID,89.3281,VALID,0,VALID,23.8127,VALID,346,VALID,0,
2009-05-21, 01:53:05,VALID,1009.03,VALID,0,VALID,89.351,VALID,0,VALID,23.8322,VALID,346,VALID,0,
2009-05-21, 01:54:05,VALID,1009,VALID,0,VALID,89.3738,VALID,0,VALID,23.8304,VALID,346,VALID,0,
2009-05-21, 01:55:05,VALID,1009.03,VALID,0,VALID,89.3662,VALID,0,VALID,23.8109,VALID,346,VALID,0,
2009-05-21, 01:56:05,VALID,1009.03,VALID,0,VALID,89.3738,VALID,0,VALID,23.8109,VALID,346,VALID,0,
2009-05-21, 01:57:05,VALID,1009.02,VALID,0,VALID,89.3815,VALID,0,VALID,23.7914,VALID,346,VALID,0,
2009-05-21, 01:58:05,VALID,1009.03,VALID,0,VALID,89.3891,VALID,0,VALID,23.8127,VALID,346,VALID,0,
2009-05-21, 01:59:05,VALID,1009.02,VALID,0,VALID,89.3662,VALID,0,VALID,23.7914,VALID,346,VALID,0,
2009-05-21, 02:00:05,VALID,1008.99,VALID,0,VALID,89.3738,VALID,0,VALID,23.7701,VALID,346,VALID,0,
2009-05-21, 02:01:05,VALID,1008.99,VALID,0,VALID,89.3662,VALID,0,VALID,23.7701,VALID,346,VALID,0,
2009-05-21, 02:02:05,VALID,1008.99,VALID,0,VALID,89.3662,VALID,0,VALID,23.7507,VALID,346,VALID,0,
2009-05-21, 02:03:05,VALID,1008.99,VALID,0,VALID,89.3815,VALID,0,VALID,23.7507,VALID,346,VALID,0,
2009-05-21, 02:04:05,VALID,1009,VALID,0,VALID,89.3738,VALID,0,VALID,23.7312,VALID,346,VALID,0,
2009-05-21, 02:05:05,VALID,1009.01,VALID,0,VALID,89.3738,VALID,0,VALID,23.7507,VALID,346,VALID,0,
2009-05-21, 02:06:05,VALID,1009,VALID,0,VALID,89.3891,VALID,0,VALID,23.7507,VALID,346,VALID,0,
2009-05-21, 02:07:05,VALID,1008.98,VALID,0,VALID,89.4043,VALID,0,VALID,23.7914,VALID,346,VALID,0,
2009-05-21, 02:08:05,VALID,1008.98,VALID,0,VALID,89.412,VALID,0.105969,VALID,23.7701,VALID,346,VALID,0,
2009-05-21, 02:09:05,VALID,1008.98,VALID,0,VALID,89.4043,VALID,0.105969,VALID,23.8109,VALID,346,VALID,0,
2009-05-21, 02:10:05,VALID,1008.94,VALID,0,VALID,89.3891,VALID,0,VALID,23.8109,VALID,346,VALID,0,
2009-05-21, 02:11:05,VALID,1008.93,VALID,0,VALID,89.3891,VALID,0,VALID,23.7896,VALID,346,VALID,0,
2009-05-21, 02:12:05,VALID,1008.91,VALID,0,VALID,89.3967,VALID,0,VALID,23.8304,VALID,346,VALID,0,
2009-05-21, 02:13:05,VALID,1008.89,VALID,0,VALID,89.3815,VALID,0,VALID,23.8304,VALID,346,VALID,0,
2009-05-21, 02:14:05,VALID,1008.88,VALID,0,VALID,89.351,VALID,0,VALID,23.8286,VALID,346,VALID,0,
2009-05-21, 02:15:05,VALID,1008.88,VALID,0,VALID,89.3586,VALID,0,VALID,23.8304,VALID,346,VALID,0,
2009-05-21, 02:16:05,VALID,1008.86,VALID,0,VALID,89.2976,VALID,0,VALID,23.8517,VALID,346,VALID,0,
2009-05-21, 02:17:05,VALID,1008.87,VALID,0,VALID,89.2899,VALID,0,VALID,23.8304,VALID,346,VALID,0,
2009-05-21, 02:18:05,VALID,1008.91,VALID,0,VALID,89.2594,VALID,0,VALID,23.8304,VALID,346,VALID,0,
2009-05-21, 02:19:05,VALID,1008.95,VALID,0,VALID,89.2137,VALID,0,VALID,23.8304,VALID,346,VALID,0,
2009-05-21, 02:20:05,VALID,1008.98,VALID,0,VALID,89.1984,VALID,0,VALID,23.8304,VALID,346,VALID,0,
2009-05-21, 02:21:05,VALID,1008.97,VALID,0,VALID,89.1603,VALID,0,VALID,23.8499,VALID,346,VALID,0,
2009-05-21, 02:22:05,VALID,1008.95,VALID,0,VALID,89.1527,VALID,0,VALID,23.8499,VALID,346,VALID,0,
2009-05-21, 02:23:05,VALID,1008.95,VALID,0,VALID,89.1451,VALID,0,VALID,23.8712,VALID,346,VALID,0,
2009-05-21, 02:24:05,VALID,1008.9,VALID,0,VALID,89.1146,VALID,0,VALID,23.8499,VALID,346,VALID,0,
2009-05-21, 02:25:05,VALID,1008.86,VALID,0,VALID,89.1069,VALID,0,VALID,23.8304,VALID,346,VALID,0,
2009-05-21, 02:26:05,VALID,1008.84,VALID,0,VALID,89.0841,VALID,0,VALID,23.8499,VALID,346,VALID,0,
2009-05-21, 02:27:05,VALID,1008.8,VALID,0,VALID,89.0841,VALID,0,VALID,23.8499,VALID,346,VALID,0,
2009-05-21, 02:28:05,VALID,1008.79,VALID,0,VALID,89.0688,VALID,0,VALID,23.8499,VALID,346,VALID,0,
2009-05-21, 02:29:05,VALID,1008.77,VALID,0,VALID,89.0536,VALID,0,VALID,23.8517,VALID,346,VALID,0,
2009-05-21, 02:30:05,VALID,1008.72,VALID,0,VALID,89.0383,VALID,0,VALID,23.8694,VALID,346,VALID,0,
2009-05-21, 02:31:05,VALID,1008.71,VALID,0,VALID,89.0307,VALID,0,VALID,23.8481,VALID,346,VALID,0,
2009-05-21, 02:32:05,VALID,1008.71,VALID,0,VALID,89.0154,VALID,0.105969,VALID,23.8499,VALID,346,VALID,0,
2009-05-21, 02:33:05,VALID,1008.67,VALID,0,VALID,89.023,VALID,0,VALID,23.8481,VALID,346,VALID,0,
2009-05-21, 02:34:05,VALID,1008.68,VALID,0,VALID,89.0154,VALID,0,VALID,23.8286,VALID,346,VALID,0,
2009-05-21, 02:35:05,VALID,1008.65,VALID,0,VALID,89.0078,VALID,0.105969,VALID,23.8286,VALID,346,VALID,0,
2009-05-21, 02:36:05,VALID,1008.64,VALID,0,VALID,89.0154,VALID,0,VALID,23.8091,VALID,346,VALID,0,
2009-05-21, 02:37:05,VALID,1008.63,VALID,0,VALID,89.0154,VALID,0,VALID,23.8091,VALID,346,VALID,0,
2009-05-21, 02:38:05,VALID,1008.68,VALID,0,VALID,89.0307,VALID,0,VALID,23.8304,VALID,346,VALID,0,
2009-05-21, 02:39:05,VALID,1008.63,VALID,0,VALID,89.023,VALID,0,VALID,23.7896,VALID,346,VALID,0,
2009-05-21, 02:40:05,VALID,1008.61,VALID,0,VALID,89.023,VALID,0,VALID,23.7896,VALID,346,VALID,0,
2009-05-21, 02:41:05,VALID,1008.62,VALID,0,VALID,89.0078,VALID,0,VALID,23.7507,VALID,346,VALID,0,
2009-05-21, 02:42:05,VALID,1008.62,VALID,0,VALID,89.0154,VALID,0,VALID,23.772,VALID,346,VALID,0,
2009-05-21, 02:43:05,VALID,1008.62,VALID,0,VALID,89.0154,VALID,0,VALID,23.7507,VALID,346,VALID,0,
2009-05-21, 02:44:05,VALID,1008.6,VALID,0,VALID,89.0383,VALID,0,VALID,23.7312,VALID,346,VALID,0,
2009-05-21, 02:45:05,VALID,1008.59,VALID,0,VALID,89.0383,VALID,0,VALID,23.733,VALID,346,VALID,0,
2009-05-21, 02:46:05,VALID,1008.61,VALID,0,VALID,89.0307,VALID,0.105969,VALID,23.7135,VALID,346,VALID,0,
2009-05-21, 02:47:05,VALID,1008.59,VALID,0,VALID,89.0536,VALID,0,VALID,23.6727,VALID,346,VALID,0,
2009-05-21, 02:48:05,VALID,1008.56,VALID,0,VALID,89.0764,VALID,0,VALID,23.6727,VALID,346,VALID,0,
2009-05-21, 02:49:05,VALID,1008.54,VALID,0,VALID,89.0917,VALID,0,VALID,23.655,VALID,346,VALID,0,
2009-05-21, 02:50:05,VALID,1008.53,VALID,0,VALID,89.0993,VALID,0,VALID,23.6338,VALID,346,VALID,0,
2009-05-21, 02:51:05,VALID,1008.5,VALID,0,VALID,89.1374,VALID,0,VALID,23.6143,VALID,346,VALID,0,
2009-05-21, 02:52:05,VALID,1008.44,VALID,0,VALID,89.1374,VALID,0,VALID,23.6161,VALID,346,VALID,0,
2009-05-21, 02:53:05,VALID,1008.45,VALID,0,VALID,89.1679,VALID,0,VALID,23.5948,VALID,346,VALID,0,
2009-05-21, 02:54:05,VALID,1008.44,VALID,0,VALID,89.1908,VALID,0,VALID,23.5753,VALID,346,VALID,0,
2009-05-21, 02:55:05,VALID,1008.43,VALID,0,VALID,89.2289,VALID,0,VALID,23.5771,VALID,346,VALID,0,
2009-05-21, 02:56:05,VALID,1008.42,VALID,0,VALID,89.2442,VALID,0,VALID,23.5558,VALID,346,VALID,0,
2009-05-21, 02:57:05,VALID,1008.43,VALID,0,VALID,89.2747,VALID,0,VALID,23.5363,VALID,346,VALID,0,
2009-05-21, 02:58:05,VALID,1008.42,VALID,0,VALID,89.3052,VALID,0,VALID,23.5169,VALID,346,VALID,0,
2009-05-21, 02:59:05,VALID,1008.42,VALID,0,VALID,89.3357,VALID,0,VALID,23.5381,VALID,346,VALID,0,
2009-05-21, 03:00:05,VALID,1008.4,VALID,0,VALID,89.3586,VALID,0.105969,VALID,23.4974,VALID,346,VALID,0,
2009-05-21, 03:01:05,VALID,1008.36,VALID,0,VALID,89.3738,VALID,0.105969,VALID,23.4974,VALID,346,VALID,0,
2009-05-21, 03:02:05,VALID,1008.37,VALID,0,VALID,89.3815,VALID,0.105969,VALID,23.4974,VALID,346,VALID,0,
2009-05-21, 03:03:05,VALID,1008.34,VALID,0,VALID,89.4348,VALID,0.105969,VALID,23.4566,VALID,346,VALID,0,
2009-05-21, 03:04:05,VALID,1008.37,VALID,0,VALID,89.4425,VALID,0.105969,VALID,23.4779,VALID,346,VALID,0,
2009-05-21, 03:05:05,VALID,1008.36,VALID,0,VALID,89.4501,VALID,0.105969,VALID,23.4779,VALID,346,VALID,0,
2009-05-21, 03:06:05,VALID,1008.36,VALID,0,VALID,89.4882,VALID,0,VALID,23.4974,VALID,346,VALID,0,
2009-05-21, 03:07:05,VALID,1008.34,VALID,0,VALID,89.4882,VALID,0.105969,VALID,23.4779,VALID,346,VALID,0,
2009-05-21, 03:08:05,VALID,1008.3,VALID,0,VALID,89.5187,VALID,0.105969,VALID,23.4974,VALID,346,VALID,0,
2009-05-21, 03:09:05,VALID,1008.32,VALID,0,VALID,89.5492,VALID,0.105969,VALID,23.4974,VALID,346,VALID,0,
2009-05-21, 03:10:05,VALID,1008.3,VALID,0,VALID,89.5645,VALID,0.105969,VALID,23.5169,VALID,346,VALID,0,
2009-05-21, 03:11:05,VALID,1008.26,VALID,0,VALID,89.5873,VALID,0.105969,VALID,23.5169,VALID,346,VALID,0,
2009-05-21, 03:12:05,VALID,1008.25,VALID,0,VALID,89.6026,VALID,0.105969,VALID,23.5363,VALID,346,VALID,0,
2009-05-21, 03:13:05,VALID,1008.21,VALID,0,VALID,89.6026,VALID,0.105969,VALID,23.5151,VALID,346,VALID,0,
2009-05-21, 03:14:05,VALID,1008.2,VALID,0,VALID,89.5873,VALID,0.105969,VALID,23.5363,VALID,346,VALID,0,
2009-05-21, 03:15:05,VALID,1008.21,VALID,0,VALID,89.5797,VALID,0,VALID,23.5381,VALID,346,VALID,0,
2009-05-21, 03:16:05,VALID,1008.2,VALID,0,VALID,89.6102,VALID,0,VALID,23.5186,VALID,346,VALID,0,
2009-05-21, 03:17:05,VALID,1008.18,VALID,0,VALID,89.5645,VALID,0,VALID,23.5186,VALID,346,VALID,0,
2009-05-21, 03:18:05,VALID,1008.17,VALID,0,VALID,89.5568,VALID,0,VALID,23.4992,VALID,346,VALID,0,
2009-05-21, 03:19:05,VALID,1008.15,VALID,0,VALID,89.5263,VALID,0,VALID,23.4584,VALID,346,VALID,0,
2009-05-21, 03:20:05,VALID,1008.15,VALID,0,VALID,89.534,VALID,0,VALID,23.4797,VALID,346,VALID,0,
2009-05-21, 03:21:05,VALID,1008.15,VALID,0,VALID,89.5111,VALID,0,VALID,23.4797,VALID,346,VALID,0,
2009-05-21, 03:22:05,VALID,1008.14,VALID,0,VALID,89.5111,VALID,0,VALID,23.4602,VALID,346,VALID,0,
2009-05-21, 03:23:05,VALID,1008.16,VALID,0,VALID,89.534,VALID,0,VALID,23.4602,VALID,346,VALID,0,
2009-05-21, 03:24:05,VALID,1008.15,VALID,0,VALID,89.5263,VALID,0,VALID,23.4602,VALID,346,VALID,0,
2009-05-21, 03:25:05,VALID,1008.1,VALID,0,VALID,89.5263,VALID,0,VALID,23.4584,VALID,346,VALID,0,
2009-05-21, 03:26:05,VALID,1008.11,VALID,0,VALID,89.5568,VALID,0,VALID,23.4584,VALID,346,VALID,0,
2009-05-21, 03:27:05,VALID,1008.11,VALID,0,VALID,89.5492,VALID,0.105969,VALID,23.4389,VALID,346,VALID,0,
2009-05-21, 03:28:05,VALID,1008.1,VALID,0,VALID,89.5721,VALID,0.105969,VALID,23.4194,VALID,346,VALID,0,
2009-05-21, 03:29:05,VALID,1008.11,VALID,0,VALID,89.5797,VALID,0.105969,VALID,23.4389,VALID,346,VALID,0,
2009-05-21, 03:30:05,VALID,1008.1,VALID,0,VALID,89.5797,VALID,0.105969,VALID,23.4389,VALID,346,VALID,0,
2009-05-21, 03:31:05,VALID,1008.15,VALID,0,VALID,89.6102,VALID,0,VALID,23.4194,VALID,346,VALID,0,
2009-05-21, 03:32:05,VALID,1008.15,VALID,0,VALID,89.6102,VALID,0,VALID,23.4017,VALID,346,VALID,0,
2009-05-21, 03:33:05,VALID,1008.15,VALID,0,VALID,89.6179,VALID,0.105969,VALID,23.3805,VALID,346,VALID,0,
2009-05-21, 03:34:05,VALID,1008.16,VALID,0,VALID,89.6102,VALID,0,VALID,23.3805,VALID,346,VALID,0,
2009-05-21, 03:35:05,VALID,1008.21,VALID,0,VALID,89.6179,VALID,0.105969,VALID,23.361,VALID,346,VALID,0,
2009-05-21, 03:36:05,VALID,1008.24,VALID,0,VALID,89.6255,VALID,0,VALID,23.3628,VALID,346,VALID,0,
2009-05-21, 03:37:05,VALID,1008.25,VALID,0,VALID,89.6407,VALID,0.105969,VALID,23.3823,VALID,346,VALID,0,
2009-05-21, 03:38:05,VALID,1008.28,VALID,0,VALID,89.6331,VALID,0.105969,VALID,23.361,VALID,346,VALID,0,
2009-05-21, 03:39:05,VALID,1008.32,VALID,0,VALID,89.656,VALID,0.105969,VALID,23.361,VALID,346,VALID,0,
2009-05-21, 03:40:05,VALID,1008.27,VALID,0,VALID,89.6636,VALID,0,VALID,23.3805,VALID,346,VALID,0,
2009-05-21, 03:41:05,VALID,1008.27,VALID,0,VALID,89.6789,VALID,0,VALID,23.361,VALID,346,VALID,0,
2009-05-21, 03:42:05,VALID,1008.26,VALID,0,VALID,89.6941,VALID,0.105969,VALID,23.3805,VALID,346,VALID,0,
2009-05-21, 03:43:04,VALID,1008.27,VALID,0,VALID,89.7094,VALID,0.105969,VALID,23.4017,VALID,346,VALID,0,
2009-05-21, 03:44:04,VALID,1008.26,VALID,0,VALID,89.7322,VALID,0.105969,VALID,23.4,VALID,346,VALID,0,
2009-05-21, 03:45:04,VALID,1008.26,VALID,0,VALID,89.7246,VALID,0,VALID,23.4017,VALID,346,VALID,0,
2009-05-21, 03:46:04,VALID,1008.23,VALID,0,VALID,89.7246,VALID,0,VALID,23.3823,VALID,346,VALID,0,
2009-05-21, 03:47:04,VALID,1008.23,VALID,0,VALID,89.7246,VALID,0,VALID,23.423,VALID,346,VALID,0,
2009-05-21, 03:48:04,VALID,1008.23,VALID,0,VALID,89.7094,VALID,0,VALID,23.4017,VALID,346,VALID,0,
2009-05-21, 03:49:04,VALID,1008.22,VALID,0,VALID,89.7094,VALID,0,VALID,23.3628,VALID,346,VALID,0,
2009-05-21, 03:50:04,VALID,1008.24,VALID,0,VALID,89.717,VALID,0,VALID,23.3433,VALID,346,VALID,0,
2009-05-21, 03:51:04,VALID,1008.23,VALID,0,VALID,89.7017,VALID,0,VALID,23.3433,VALID,346,VALID,0,
2009-05-21, 03:52:04,VALID,1008.22,VALID,0,VALID,89.6712,VALID,0,VALID,23.3238,VALID,346,VALID,0,
2009-05-21, 03:53:04,VALID,1008.22,VALID,0,VALID,89.6712,VALID,0,VALID,23.3238,VALID,346,VALID,0,
2009-05-21, 03:54:04,VALID,1008.21,VALID,0,VALID,89.6712,VALID,0,VALID,23.3238,VALID,346,VALID,0,
2009-05-21, 03:55:04,VALID,1008.21,VALID,0,VALID,89.6636,VALID,0,VALID,23.3238,VALID,346,VALID,0,
2009-05-21, 03:56:04,VALID,1008.21,VALID,0,VALID,89.6484,VALID,0,VALID,23.3238,VALID,346,VALID,0,
2009-05-21, 03:57:04,VALID,1008.21,VALID,0,VALID,89.656,VALID,0,VALID,23.3043,VALID,346,VALID,0,